Station SBIO1 - South Bass Island, OH Image indicating link to RSS feed of recent meteorological observations for station SBIO1


Conditions at SBIO1 as of
(7:00 am EDT)
1100 GMT on 04/16/2024:
     

Click on the graph icon in the table below to see a time series plot of the last five days of that observation.

5-day plot - Wind Direction Wind Direction (WDIR):ENE ( 70 deg true )
5-day plot - Wind Speed Wind Speed (WSPD): 9 kts
5-day plot - Wind Gust Wind Gust (GST): 13 kts
5-day plot - Atmospheric Pressure Atmospheric Pressure (PRES):30.12 in
5-day plot - Pressure Tendency Pressure Tendency (PTDY):+0.05 in ( Rising )
5-day plot - Air Temperature Air Temperature (ATMP): 49.3 °F
5-day plot - Wind Chill Wind Chill (CHILL): 45.0 °F
5-day plot - Wind Speed at 10 Meters Wind Speed at 10 meters (WSPD10M): 8 kts
5-day plot - Wind Speed at 20 Meters Wind Speed at 20 meters (WSPD20M): 10 kts
5-day plot -  Wind Speed, Wind Gust and Atmospheric Pressure Combined plot of Wind Speed, Gust, and Air Pressure
Continuous Winds
TIME
(EDT)
5-day plot - Wind Direction WDIR 5-day plot - Wind Speed WSPD
7:00 amENE ( 64 deg ) 10 kts
6:50 amENE ( 62 deg ) 10 kts
6:40 amENE ( 64 deg ) 11 kts
6:30 amENE ( 63 deg ) 11 kts
6:20 amENE ( 64 deg ) 11 kts
6:10 amENE ( 60 deg ) 12 kts
 
Peak gust during the measurement hour
TIME
(EDT)
5-day plot - Gust Direction GDR 5-day plot - Gust Speed GST
6:10 amENE ( 60 deg ) 17 kts
Previous observations
TIME
(EDT)
5-day plot - Wind Direction
WDIR
 
5-day plot - Wind Speed
WSPD
kts
5-day plot - Wind Gust
GST
kts
5-day plot - Wave Height
WVHT
ft
5-day plot - Dominant Wave Period
DPD
sec
5-day plot - Average Wave Period
APD
sec
5-day plot - Mean Wave Direction
MWD
 
5-day plot - Atmospheric Pressure
PRES
in
5-day plot - Pressure Tendency
PTDY
in
5-day plot - Air Temperature
ATMP
°F
5-day plot - Water Temperature
WTMP
°F
5-day plot - Dew Point
DEWP
°F
5-day plot - Salinity
SAL
psu
5-day plot - Visibility
VIS
nmi
5-day plot - Tide (above MLLW)
TIDE
ft
2024-04-16 06:00 amENE 12 15----30.10+0.04 48.7-----
2024-04-16 05:00 am NE 10 14----30.09+0.04 50.0-----
2024-04-16 04:00 amNNE 6 9----30.07+0.02 52.9-----
2024-04-16 03:00 amESE 7 7----30.06+0.01 54.5-----
2024-04-16 02:00 am E 6 7----30.05+0.02 57.7-----
2024-04-16 01:00 amESE 5 5----30.05+0.02 57.2-----
2024-04-16 12:00 am SE 5 6----30.04+0.03 55.2-----
2024-04-15 11:00 pm E 10 11----30.03+0.02 56.3-----
2024-04-15 10:00 pm E 9 10----30.03+0.03 54.9-----
2024-04-15 09:00 pm E 11 13----30.01+0.00 52.7-----
2024-04-15 08:00 pmESE 11 12----30.00+0.00 52.0-----
2024-04-15 07:00 pmESE 10 12----30.00+0.00 52.7-----
2024-04-15 06:00 pm E 9 10----30.00+0.00 54.1-----
2024-04-15 05:00 pmENE 5 8----30.01+0.01 52.9-----
2024-04-15 04:00 pm NE 5 7----30.00+0.00 54.0-----
2024-04-15 03:00 pmENE 5 9----30.00+0.00 52.2-----
2024-04-15 02:00 pmENE 7 9----30.00+0.01 51.3-----
2024-04-15 01:00 pmENE 6 9----30.00+0.04 50.9-----
2024-04-15 12:00 pmENE 7 11----30.00+0.05 50.9-----
2024-04-15 11:00 amENE 7 11----29.98+0.06 52.0-----
2024-04-15 10:00 am NE 9 12----29.96+0.06 53.1-----
2024-04-15 09:00 amNNE 7 12----29.94+0.08 53.6-----
2024-04-15 08:00 amNNE 7 14----29.93+0.09 51.4-----
2024-04-15 07:00 amNNE 8 15----29.90+0.06 49.6-----